Погода в Цокто-Хангиле

Россия / Забайкальский край     50°54′20″N   114°37′28″E
темп.,
°C
ветер,
м/с
пор.,
м/с
влажн.,
%
обл.,
%
осадки,
мм/ч
давл.,
гПа
погр.,
м
14 июня, пн
пн1400:00+15зсз2289100 0.1 100426
03:00+14ссз3894100 1.4 1004340
06:00+13сз3890100 0.1 1004384
09:00+15сз4679100 0.1 1004473
12:00+18сз5651100 0.0 1004957
15:00+22ссз3537100 0.0 10012045
18:00+24сз57273 0.0 10002704
21:00+18сз33452 0.0 100142
15 июня, вт
вт1500:00+13зсз2251100 0.0 100217
03:00+13сз3350100 0.0 100354
06:00+13зюз2255100 0.0 100431
09:00+14зсз5962100 0.0 1005435
12:00+18ссз573898 0.0 10041256
15:00+21сз4630100 0.0 10032178
18:00+20зсз2533100 0.0 10021758
21:00+17зсз1146100 0.0 100211
16 июня, ср
ср1600:00+15з3650100 0.0 1004163
03:00+13сз61159100 0.0 1003428
06:00+11зсз71360100 0.0 1004390
09:00+13сз81052100 0.0 1004620
12:00+16сз9951100 0.0 10031076
15:00+12ссз61072100 0.8 1003586
18:00+11зсз41089100 4.4 1003523
21:00+11зсз3993100 7.9 1001369
17 июня, чт
чт1700:00+11сз71192100 3.1 1000407
03:00+10сз71292100 3.8 999367
06:00+10сз81485100 0.3 997565
09:00+11ссз101774100 0.5 9961352
12:00+13с132367100 1.0 9932079
15:00+11с112279100 6.6 9941743
18:00+12с112376100 4.2 9941868
21:00+12с132381100 7.3 9941610
18 июня, пт
пт1800:00+11с112185100 2.5 9951660
03:00+11ссз81786100 5.3 9941511
06:00+10ссз101985100 1.3 9941433
09:00+10ссз91787100 4.4 9941114
12:00+11ссз101685100 2.1 994925
15:00+10ссз81590100 4.1 995818
18:00+10ссз61391100 3.1 995640
21:00+10ссз41094100 6.6 996517